Back to catalog

STARLINK-31146

AliveCommunicationsVLEO
NORAD 58769·PAYLOAD·🇺🇸 United States

Launched Jan 14, 2024 from Vandenberg Space Force Base

Loading…

Next Passes (next 24 hours)

TLE

FreshSource: CelesTrak SupGP

Epoch: Sep 14, 2026, 21:16 UTC

1 58769C 24011E   26257.88659722  .00025498  00000+0  75322-3 0  2578
2 58769  53.1587 212.0738 0001468  91.4892  20.1636 15.34382666    14

Track STARLINK-31146 in real time with AllMySat

Download on the App Store